Location: Miles
(41.4492°N, 81.6087°W)
Time: 08:09:38
(UTC+00:00)

Vanguard 1 Rocket - Pass Details

Date: 14 September 2024
Orbit: 650 x 4218 km, 34.3° (Epoch: 05 October)

Event Time Altitude Azimuth Distance (km) Brightness Sun altitude
Rises 08:57:45 0° 231° (SW) 5,381 - -23.8°
Reaches altitude 10° 09:00:43 10° 227° (SW) 4,750 - -23.3°
Exits shadow 09:04:38 25° 218° (SW) 4,081 10.1 -22.7°
Maximum altitude 09:15:11 57° 153° (SSE) 3,707 10.4 -20.9°
Drops below altitude 10° 09:39:07 10° 84° (E) 7,412 13.2 -16.7°
Sets 09:45:13 0° 81° (E) 8,451 14.0 -15.7°
